,,Stat1,,Stat2,,Stat3,,Stat4,,Wind1,,Wind1,
time,status,PR1M_SUM,status,RH1M_AVG,status,SR1M_AVG,status,TA1M_AVG,status,W1dAve1m,status,W1sAve1m,
2000-03-06, 00:01:01,VALID,0,VALID,94.6888,VALID,0,VALID,17.3762,VALID,151,VALID,0,
2000-03-06, 00:02:01,VALID,0,VALID,94.2424,VALID,0,VALID,17.3609,VALID,152,VALID,0,
2000-03-06, 00:03:00,VALID,0,VALID,95.1682,VALID,-0.0169808,VALID,17.3639,VALID,152,VALID,0,
2000-03-06, 00:04:00,VALID,0,VALID,93.8927,VALID,0,VALID,17.3284,VALID,148,VALID,0,
2000-03-06, 00:05:00,VALID,0,VALID,94.5133,VALID,0,VALID,17.2697,VALID,172,VALID,0,
2000-03-06, 00:06:00,VALID,0,VALID,96.6152,VALID,0,VALID,17.3637,VALID,185,VALID,0,
2000-03-06, 00:07:00,VALID,0,VALID,97.0361,VALID,0.0169808,VALID,17.467,VALID,185,VALID,0,
2000-03-06, 00:08:00,VALID,0,VALID,95.5039,VALID,-0.0169808,VALID,17.5191,VALID,145,VALID,0,
2000-03-06, 00:09:00,VALID,0,VALID,94.0008,VALID,0,VALID,17.4603,VALID,120,VALID,0.613982,
2000-03-06, 00:10:00,VALID,0,VALID,95.1516,VALID,0.0169808,VALID,17.4573,VALID,126,VALID,0.332721,
2000-03-06, 00:11:00,VALID,0,VALID,95.3271,VALID,0,VALID,17.4575,VALID,164,VALID,0.464193,
2000-03-06, 00:12:01,VALID,0,VALID,94.8414,VALID,0,VALID,17.4253,VALID,167,VALID,0.349392,
2000-03-06, 00:13:00,VALID,0,VALID,95.1008,VALID,0,VALID,17.3895,VALID,196,VALID,0.211138,
2000-03-06, 00:14:00,VALID,0,VALID,95.5039,VALID,0,VALID,17.3867,VALID,195,VALID,0.0230369,
2000-03-06, 00:15:00,VALID,0,VALID,95.5344,VALID,0,VALID,17.3672,VALID,196,VALID,0.273226,
2000-03-06, 00:16:00,VALID,0,VALID,96.277,VALID,0,VALID,17.387,VALID,206,VALID,0.452724,
2000-03-06, 00:17:00,VALID,0,VALID,96.4614,VALID,0,VALID,17.4068,VALID,207,VALID,0.509046,
2000-03-06, 00:18:00,VALID,0,VALID,96.1308,VALID,0,VALID,17.3803,VALID,207,VALID,0.369591,
2000-03-06, 00:19:00,VALID,0,VALID,95.453,VALID,0,VALID,17.3478,VALID,206,VALID,0,
2000-03-06, 00:20:00,VALID,0,VALID,95.4212,VALID,0,VALID,17.3381,VALID,196,VALID,0,
2000-03-06, 00:21:00,VALID,0,VALID,96.1371,VALID,-0.0169808,VALID,17.3573,VALID,187,VALID,0,
2000-03-06, 00:22:00,VALID,0,VALID,96.4245,VALID,-0.0169808,VALID,17.3768,VALID,187,VALID,0,
2000-03-06, 00:23:00,VALID,0,VALID,96.558,VALID,-0.0339617,VALID,17.3768,VALID,187,VALID,0,
2000-03-06, 00:24:00,VALID,0,VALID,96.4398,VALID,0,VALID,17.3672,VALID,187,VALID,0,
2000-03-06, 00:25:00,VALID,0,VALID,96.0748,VALID,0,VALID,17.3607,VALID,187,VALID,0,
2000-03-06, 00:26:00,VALID,0,VALID,96.1371,VALID,0,VALID,17.3738,VALID,187,VALID,0,
2000-03-06, 00:27:00,VALID,0,VALID,94.6239,VALID,0,VALID,17.3192,VALID,174,VALID,0.222852,
2000-03-06, 00:28:00,VALID,0,VALID,94.6379,VALID,0,VALID,17.2576,VALID,152,VALID,0.453125,
2000-03-06, 00:29:00,VALID,0,VALID,95.8027,VALID,0,VALID,17.2546,VALID,151,VALID,0.327691,
2000-03-06, 00:30:00,VALID,0,VALID,95.8675,VALID,0,VALID,17.2574,VALID,151,VALID,0.0787418,
2000-03-06, 00:31:00,VALID,0,VALID,96.1613,VALID,0,VALID,17.2867,VALID,151,VALID,0.0226362,
2000-03-06, 00:32:00,VALID,0,VALID,96.3139,VALID,-0.0169808,VALID,17.3388,VALID,152,VALID,0,
2000-03-06, 00:33:00,VALID,0,VALID,95.912,VALID,0,VALID,17.3381,VALID,163,VALID,0,
2000-03-06, 00:34:01,VALID,0,VALID,95.1313,VALID,-0.0169808,VALID,17.3187,VALID,201,VALID,0.197852,
2000-03-06, 00:35:00,VALID,0,VALID,94.9024,VALID,0,VALID,17.2867,VALID,215,VALID,0.398237,
2000-03-06, 00:36:00,VALID,0,VALID,95.1783,VALID,-0.0169808,VALID,17.268,VALID,213,VALID,0.126002,
2000-03-06, 00:37:00,VALID,0,VALID,95.3195,VALID,0,VALID,17.2417,VALID,202,VALID,0.297335,
2000-03-06, 00:38:00,VALID,0,VALID,95.0931,VALID,0,VALID,17.2159,VALID,199,VALID,0.314453,
2000-03-06, 00:39:00,VALID,0,VALID,95.0486,VALID,0,VALID,17.1709,VALID,182,VALID,0.375868,
2000-03-06, 00:40:00,VALID,0,VALID,95.2864,VALID,0,VALID,17.1029,VALID,179,VALID,0.207933,
2000-03-06, 00:41:00,VALID,0,VALID,95.7213,VALID,-0.0169808,VALID,17.064,VALID,179,VALID,0.0935497,
2000-03-06, 00:42:00,VALID,0,VALID,96.1905,VALID,0,VALID,17.0844,VALID,179,VALID,0,
2000-03-06, 00:43:00,VALID,0,VALID,96.352,VALID,0,VALID,17.0932,VALID,179,VALID,0.192708,
2000-03-06, 00:44:00,VALID,0,VALID,96.6496,VALID,-0.0169808,VALID,17.1259,VALID,179,VALID,0.192434,
2000-03-06, 00:45:00,VALID,0,VALID,96.4321,VALID,-0.0169808,VALID,17.1414,VALID,179,VALID,0.142228,
2000-03-06, 00:46:00,VALID,0,VALID,96.1676,VALID,0.0679233,VALID,17.1345,VALID,178,VALID,0.159091,
2000-03-06, 00:47:00,VALID,0,VALID,96.3813,VALID,0.0679233,VALID,17.1535,VALID,179,VALID,0.10026,
2000-03-06, 00:48:00,VALID,0,VALID,95.4988,VALID,0.0509425,VALID,17.1735,VALID,165,VALID,0,
2000-03-06, 00:49:00,VALID,0,VALID,93.8788,VALID,0.0679233,VALID,17.0831,VALID,158,VALID,0,
2000-03-06, 00:50:00,VALID,0,VALID,94.7536,VALID,0.0339617,VALID,17.0349,VALID,158,VALID,0,
2000-03-06, 00:51:00,VALID,0,VALID,95.9349,VALID,0.0679233,VALID,17.0313,VALID,192,VALID,0,
2000-03-06, 00:52:00,VALID,0,VALID,95.0639,VALID,-0.0169808,VALID,17.0005,VALID,231,VALID,0,
2000-03-06, 00:53:00,VALID,0,VALID,95.6565,VALID,-0.0339617,VALID,16.9846,VALID,226,VALID,0.291518,
2000-03-06, 00:54:00,VALID,0,VALID,96.2134,VALID,-0.0849042,VALID,17.0132,VALID,220,VALID,1.03125,
2000-03-06, 00:55:00,VALID,0,VALID,95.9248,VALID,-0.0679233,VALID,17.0777,VALID,221,VALID,0.476333,
2000-03-06, 00:56:00,VALID,0,VALID,95.2673,VALID,-0.0509425,VALID,17.1102,VALID,213,VALID,0.854167,
2000-03-06, 00:57:00,VALID,0,VALID,95.5318,VALID,-0.0679233,VALID,17.1619,VALID,220,VALID,1.2241,
2000-03-06, 00:58:00,VALID,0,VALID,95.294,VALID,-0.0509425,VALID,17.2331,VALID,198,VALID,0.845553,
2000-03-06, 00:59:00,VALID,0,VALID,94.629,VALID,-0.0679233,VALID,17.3134,VALID,188,VALID,0.965144,
2000-03-06, 01:00:00,VALID,0,VALID,93.435,VALID,-0.0509425,VALID,17.4425,VALID,181,VALID,0.865498,
2000-03-06, 01:01:00,VALID,0,VALID,92.9988,VALID,-0.0339617,VALID,17.5299,VALID,179,VALID,0.802539,
2000-03-06, 01:02:00,VALID,0,VALID,92.672,VALID,-0.0169808,VALID,17.5654,VALID,186,VALID,0.769431,
2000-03-06, 01:03:00,VALID,0,VALID,91.375,VALID,-0.0169808,VALID,17.5264,VALID,204,VALID,0.461138,
2000-03-06, 01:04:00,VALID,0,VALID,91.3546,VALID,0,VALID,17.4388,VALID,226,VALID,0.498162,
2000-03-06, 01:05:00,VALID,0,VALID,92.7063,VALID,-0.0169808,VALID,17.362,VALID,222,VALID,0.327908,
2000-03-06, 01:06:01,VALID,0,VALID,93.4121,VALID,-0.0339617,VALID,17.3168,VALID,216,VALID,0.150825,
2000-03-06, 01:07:00,VALID,0,VALID,93.3701,VALID,-0.0339617,VALID,17.2684,VALID,216,VALID,0,
2000-03-06, 01:08:00,VALID,0,VALID,94.0072,VALID,0,VALID,17.2294,VALID,216,VALID,0,
2000-03-06, 01:09:00,VALID,0,VALID,94.2526,VALID,-0.0169808,VALID,17.2297,VALID,216,VALID,0,
2000-03-06, 01:10:00,VALID,0,VALID,92.7979,VALID,0,VALID,17.1974,VALID,215,VALID,0,
2000-03-06, 01:11:00,VALID,0,VALID,93.3231,VALID,-0.0509425,VALID,17.1784,VALID,215,VALID,0,
2000-03-06, 01:12:00,VALID,0,VALID,93.543,VALID,-0.0509425,VALID,17.1681,VALID,215,VALID,0,
2000-03-06, 01:13:00,VALID,0,VALID,94.1,VALID,-0.0339617,VALID,17.1681,VALID,215,VALID,0,
2000-03-06, 01:14:00,VALID,0,VALID,94.0148,VALID,-0.0169808,VALID,17.1647,VALID,215,VALID,0,
2000-03-06, 01:15:00,VALID,0,VALID,94.7511,VALID,-0.0509425,VALID,17.1847,VALID,214,VALID,0,
2000-03-06, 01:16:00,VALID,0,VALID,94.7803,VALID,-0.0509425,VALID,17.2103,VALID,210,VALID,0,
2000-03-06, 01:17:00,VALID,0,VALID,94.6608,VALID,-0.0509425,VALID,17.243,VALID,206,VALID,0,
2000-03-06, 01:18:00,VALID,0,VALID,94.5031,VALID,0,VALID,17.2486,VALID,206,VALID,0,
2000-03-06, 01:19:00,VALID,0,VALID,94.6099,VALID,-0.0169808,VALID,17.2456,VALID,206,VALID,0,
2000-03-06, 01:20:00,VALID,0,VALID,94.2259,VALID,-0.0169808,VALID,17.2359,VALID,205,VALID,0,
2000-03-06, 01:21:00,VALID,0,VALID,94.0784,VALID,-0.0169808,VALID,17.2071,VALID,198,VALID,0,
2000-03-06, 01:22:00,VALID,0,VALID,93.5926,VALID,-0.0169808,VALID,17.1193,VALID,169,VALID,0.51057,
2000-03-06, 01:23:00,VALID,0,VALID,93.7414,VALID,-0.0679233,VALID,17.0592,VALID,187,VALID,0.505859,
2000-03-06, 01:24:00,VALID,0,VALID,94.3276,VALID,-0.0679233,VALID,16.994,VALID,193,VALID,0.390831,
2000-03-06, 01:25:00,VALID,0,VALID,94.395,VALID,-0.0509425,VALID,16.9751,VALID,193,VALID,0.319712,
2000-03-06, 01:26:00,VALID,0,VALID,94.3022,VALID,-0.0849042,VALID,16.9232,VALID,193,VALID,0.35597,
2000-03-06, 01:27:00,VALID,0,VALID,94.6964,VALID,-0.0509425,VALID,16.8972,VALID,193,VALID,0.343117,
2000-03-06, 01:28:01,VALID,0,VALID,94.7053,VALID,-0.0339617,VALID,16.8907,VALID,193,VALID,0.204883,
2000-03-06, 01:29:00,VALID,0,VALID,94.863,VALID,-0.0339617,VALID,16.8974,VALID,193,VALID,0.0703125,
2000-03-06, 01:30:00,VALID,0,VALID,95.2699,VALID,-0.0849042,VALID,16.9131,VALID,193,VALID,0,
2000-03-06, 01:31:00,VALID,0,VALID,94.7422,VALID,0,VALID,16.9394,VALID,193,VALID,0,
2000-03-06, 01:32:00,VALID,0,VALID,94.2437,VALID,-0.0679233,VALID,16.923,VALID,193,VALID,0,
2000-03-06, 01:33:00,VALID,0,VALID,95.0906,VALID,-0.0169808,VALID,16.9323,VALID,202,VALID,0,
2000-03-06, 01:34:00,VALID,0,VALID,94.8808,VALID,-0.0509425,VALID,16.9426,VALID,220,VALID,0,
2000-03-06, 01:35:00,VALID,0,VALID,94.2513,VALID,-0.0339617,VALID,16.923,VALID,225,VALID,0.457532,
2000-03-06, 01:36:00,VALID,0,VALID,94.6328,VALID,0,VALID,16.9232,VALID,217,VALID,0.527027,
2000-03-06, 01:37:00,VALID,0,VALID,94.6468,VALID,-0.0169808,VALID,16.9159,VALID,210,VALID,0.483373,
2000-03-06, 01:38:00,VALID,0,VALID,94.1026,VALID,-0.0169808,VALID,16.8998,VALID,200,VALID,0.495683,
2000-03-06, 01:39:00,VALID,0,VALID,95.0397,VALID,-0.0169808,VALID,16.9226,VALID,195,VALID,0.545473,
2000-03-06, 01:40:00,VALID,0,VALID,94.278,VALID,-0.0169808,VALID,16.9424,VALID,162,VALID,0.772727,
2000-03-06, 01:41:00,VALID,0,VALID,94.5718,VALID,0,VALID,16.9359,VALID,162,VALID,0.855252,
2000-03-06, 01:42:00,VALID,0,VALID,94.7816,VALID,-0.0169808,VALID,16.9163,VALID,157,VALID,0.942508,
2000-03-06, 01:43:00,VALID,0,VALID,94.7511,VALID,0,VALID,16.9805,VALID,155,VALID,0.919764,
2000-03-06, 01:44:00,VALID,0,VALID,93.9627,VALID,-0.0339617,VALID,17.1231,VALID,159,VALID,0.833203,
2000-03-06, 01:45:00,VALID,0,VALID,92.8996,VALID,-0.0169808,VALID,17.2947,VALID,171,VALID,0.567925,
2000-03-06, 01:46:00,VALID,0,VALID,91.4029,VALID,-0.0169808,VALID,17.3745,VALID,173,VALID,0.398849,
2000-03-06, 01:47:00,VALID,0,VALID,91.5187,VALID,-0.0339617,VALID,17.3687,VALID,178,VALID,0.558705,
2000-03-06, 01:48:00,VALID,0,VALID,92.0184,VALID,-0.0169808,VALID,17.3429,VALID,191,VALID,0.359961,
2000-03-06, 01:49:00,VALID,0,VALID,91.6395,VALID,0,VALID,17.2716,VALID,229,VALID,0.426471,
2000-03-06, 01:50:00,VALID,0,VALID,92.5296,VALID,-0.0169808,VALID,17.2013,VALID,238,VALID,0.299913,
2000-03-06, 01:51:00,VALID,0,VALID,92.9428,VALID,-0.0679233,VALID,17.1231,VALID,236,VALID,0.253084,
2000-03-06, 01:52:00,VALID,0,VALID,93.0929,VALID,-0.0169808,VALID,17.0747,VALID,242,VALID,0.339944,
2000-03-06, 01:53:00,VALID,0,VALID,93.5176,VALID,-0.0679233,VALID,17.0461,VALID,244,VALID,0.612981,
2000-03-06, 01:54:00,VALID,0,VALID,93.9004,VALID,-0.0679233,VALID,17.0168,VALID,243,VALID,0.482686,
2000-03-06, 01:55:00,VALID,0,VALID,93.3205,VALID,-0.0509425,VALID,16.9815,VALID,219,VALID,0.324023,
2000-03-06, 01:56:00,VALID,0,VALID,94.3353,VALID,-0.0169808,VALID,16.9583,VALID,212,VALID,0.663462,
2000-03-06, 01:57:00,VALID,0,VALID,94.9698,VALID,-0.0679233,VALID,17.0104,VALID,206,VALID,0.723357,
2000-03-06, 01:58:00,VALID,0,VALID,94.4853,VALID,-0.0679233,VALID,17.1201,VALID,196,VALID,0.758732,
2000-03-06, 01:59:00,VALID,0,VALID,92.8526,VALID,-0.0679233,VALID,17.2656,VALID,169,VALID,0.744575,
2000-03-06, 02:00:00,VALID,0,VALID,91.9472,VALID,-0.0169808,VALID,17.3491,VALID,160,VALID,0.668403,
2000-03-06, 02:01:00,VALID,0,VALID,90.7201,VALID,-0.0679233,VALID,17.32,VALID,140,VALID,0.521434,
2000-03-06, 02:02:00,VALID,0,VALID,92.5003,VALID,-0.0679233,VALID,17.2458,VALID,144,VALID,0.571114,
2000-03-06, 02:03:00,VALID,0,VALID,93.3727,VALID,-0.0339617,VALID,17.1911,VALID,163,VALID,0.511613,
2000-03-06, 02:04:00,VALID,0,VALID,93.5214,VALID,-0.0509425,VALID,17.1584,VALID,176,VALID,0.321314,
2000-03-06, 02:05:00,VALID,0,VALID,93.5214,VALID,-0.0169808,VALID,17.1365,VALID,192,VALID,0.424753,
2000-03-06, 02:06:00,VALID,0,VALID,93.1196,VALID,-0.0339617,VALID,17.0975,VALID,199,VALID,0.298077,
2000-03-06, 02:07:00,VALID,0,VALID,93.4629,VALID,-0.0169808,VALID,17.0782,VALID,200,VALID,0.0267519,
2000-03-06, 02:08:00,VALID,0,VALID,93.5787,VALID,-0.0339617,VALID,17.0489,VALID,201,VALID,0,
2000-03-06, 02:09:00,VALID,0,VALID,93.7872,VALID,-0.0339617,VALID,17.0418,VALID,201,VALID,0,
2000-03-06, 02:10:00,VALID,0,VALID,93.6257,VALID,0,VALID,17.0975,VALID,194,VALID,0,
2000-03-06, 02:11:00,VALID,0,VALID,93.3994,VALID,-0.0169808,VALID,17.0937,VALID,184,VALID,0,
2000-03-06, 02:12:00,VALID,0,VALID,93.0891,VALID,-0.0679233,VALID,17.0551,VALID,178,VALID,0,
2000-03-06, 02:13:01,VALID,0,VALID,92.967,VALID,-0.0509425,VALID,17.0069,VALID,178,VALID,0,
2000-03-06, 02:14:00,VALID,0,VALID,93.2086,VALID,-0.0169808,VALID,16.9747,VALID,178,VALID,0,
2000-03-06, 02:15:00,VALID,0,VALID,93.791,VALID,-0.0169808,VALID,16.9258,VALID,178,VALID,0,
2000-03-06, 02:16:00,VALID,0,VALID,94.1916,VALID,-0.0339617,VALID,16.858,VALID,176,VALID,0,
2000-03-06, 02:17:00,VALID,0,VALID,94.465,VALID,-0.0169808,VALID,16.7967,VALID,171,VALID,0,
2000-03-06, 02:18:00,VALID,0,VALID,94.7638,VALID,-0.0339617,VALID,16.7683,VALID,171,VALID,0,
2000-03-06, 02:19:00,VALID,0,VALID,94.8057,VALID,-0.0509425,VALID,16.7328,VALID,171,VALID,0,
2000-03-06, 02:20:00,VALID,0,VALID,95.0995,VALID,0,VALID,16.713,VALID,171,VALID,0,
2000-03-06, 02:21:00,VALID,0,VALID,94.6252,VALID,-0.0169808,VALID,16.6812,VALID,172,VALID,0,
2000-03-06, 02:22:00,VALID,0,VALID,94.5781,VALID,-0.0169808,VALID,16.6388,VALID,185,VALID,0,
2000-03-06, 02:23:00,VALID,0,VALID,95.3207,VALID,-0.0169808,VALID,16.6297,VALID,209,VALID,0,
2000-03-06, 02:24:01,VALID,0,VALID,95.7175,VALID,-0.0339617,VALID,16.6295,VALID,229,VALID,0.205729,
2000-03-06, 02:25:00,VALID,0,VALID,95.926,VALID,-0.0509425,VALID,16.6291,VALID,254,VALID,0.317325,
2000-03-06, 02:26:00,VALID,0,VALID,96.0799,VALID,-0.0339617,VALID,16.6747,VALID,262,VALID,0.0761719,
2000-03-06, 02:27:00,VALID,0,VALID,96.1905,VALID,-0.0169808,VALID,16.71,VALID,262,VALID,0.0507813,
2000-03-06, 02:28:00,VALID,0,VALID,96.4016,VALID,-0.0509425,VALID,16.7582,VALID,255,VALID,0.317508,
2000-03-06, 02:29:00,VALID,0,VALID,96.7793,VALID,-0.0509425,VALID,16.8555,VALID,246,VALID,0.574319,
2000-03-06, 02:30:00,VALID,0,VALID,96.5796,VALID,-0.0169808,VALID,16.9751,VALID,240,VALID,0.566723,
2000-03-06, 02:31:00,VALID,0,VALID,95.0486,VALID,0,VALID,17.0487,VALID,221,VALID,0.477764,
2000-03-06, 02:32:00,VALID,0,VALID,94.2818,VALID,-0.0169808,VALID,17.0777,VALID,198,VALID,0.599712,
2000-03-06, 02:33:00,VALID,0,VALID,94.7371,VALID,0,VALID,17.1005,VALID,190,VALID,0.727764,
2000-03-06, 02:34:00,VALID,0,VALID,94.3416,VALID,-0.0169808,VALID,17.1199,VALID,198,VALID,0.555161,
2000-03-06, 02:35:01,VALID,0,VALID,93.9449,VALID,-0.0169808,VALID,17.1229,VALID,195,VALID,0.472873,
2000-03-06, 02:36:00,VALID,0,VALID,93.744,VALID,0,VALID,17.0874,VALID,227,VALID,0.449119,
2000-03-06, 02:37:00,VALID,0,VALID,94.2666,VALID,-0.0169808,VALID,17.0911,VALID,229,VALID,0.367399,
2000-03-06, 02:38:00,VALID,0,VALID,94.3531,VALID,-0.0169808,VALID,17.0747,VALID,230,VALID,0.55957,
2000-03-06, 02:39:00,VALID,0,VALID,94.1763,VALID,0,VALID,17.0584,VALID,218,VALID,0.742622,
2000-03-06, 02:40:00,VALID,0,VALID,93.8864,VALID,-0.0169808,VALID,17.0261,VALID,205,VALID,0.67352,
2000-03-06, 02:41:00,VALID,0,VALID,94.5985,VALID,-0.0169808,VALID,17.03,VALID,200,VALID,0.52433,
2000-03-06, 02:42:00,VALID,0,VALID,94.8909,VALID,0,VALID,17.0196,VALID,201,VALID,0.146875,
2000-03-06, 02:43:00,VALID,0,VALID,94.8528,VALID,0,VALID,17.0293,VALID,234,VALID,0.0344669,
2000-03-06, 02:44:00,VALID,0,VALID,94.4154,VALID,-0.0169808,VALID,17.0194,VALID,228,VALID,0.222656,
2000-03-06, 02:45:00,VALID,0,VALID,93.9461,VALID,-0.0169808,VALID,16.9904,VALID,228,VALID,0.722039,
2000-03-06, 02:46:01,VALID,0,VALID,93.6753,VALID,0.0169808,VALID,16.9488,VALID,224,VALID,0.733774,
2000-03-06, 02:47:00,VALID,0,VALID,94.5247,VALID,-0.0169808,VALID,16.9097,VALID,215,VALID,0.845553,
2000-03-06, 02:48:00,VALID,0,VALID,94.8185,VALID,-0.0339617,VALID,16.9415,VALID,219,VALID,0.709248,
2000-03-06, 02:49:00,VALID,0,VALID,94.4993,VALID,0,VALID,17.0132,VALID,217,VALID,0.493555,
2000-03-06, 02:50:00,VALID,0,VALID,94.1356,VALID,0,VALID,17.0356,VALID,217,VALID,0.445313,
2000-03-06, 02:51:00,VALID,0,VALID,93.9118,VALID,0,VALID,17.0166,VALID,220,VALID,0.40605,
2000-03-06, 02:52:00,VALID,0,VALID,94.1458,VALID,-0.0169808,VALID,16.9942,VALID,209,VALID,0.368107,
2000-03-06, 02:53:00,VALID,0,VALID,94.3632,VALID,0,VALID,16.9516,VALID,207,VALID,0.280165,
2000-03-06, 02:54:00,VALID,0,VALID,94.3581,VALID,0,VALID,16.9194,VALID,207,VALID,0.330729,
2000-03-06, 02:55:00,VALID,0,VALID,94.3251,VALID,0,VALID,16.9032,VALID,207,VALID,0.305088,
2000-03-06, 02:56:00,VALID,0,VALID,94.5756,VALID,0.0169808,VALID,16.8873,VALID,204,VALID,0.395232,
2000-03-06, 02:57:01,VALID,0,VALID,94.6303,VALID,0,VALID,16.8645,VALID,201,VALID,0.363176,
2000-03-06, 02:58:00,VALID,0,VALID,94.7015,VALID,0,VALID,16.8516,VALID,201,VALID,0.344151,
2000-03-06, 02:59:00,VALID,0,VALID,94.9622,VALID,0,VALID,16.8456,VALID,201,VALID,0.230263,
2000-03-06, 03:00:00,VALID,0,VALID,94.5921,VALID,0,VALID,16.8094,VALID,201,VALID,0.0554888,
2000-03-06, 03:01:00,VALID,0,VALID,94.2755,VALID,0,VALID,16.7421,VALID,201,VALID,0,
2000-03-06, 03:02:00,VALID,0,VALID,95.2292,VALID,0,VALID,16.7092,VALID,192,VALID,0,
2000-03-06, 03:03:00,VALID,0,VALID,95.7544,VALID,-0.0169808,VALID,16.73,VALID,183,VALID,0.30008,
2000-03-06, 03:04:00,VALID,0,VALID,95.5624,VALID,-0.0339617,VALID,16.716,VALID,190,VALID,0.566301,
2000-03-06, 03:05:00,VALID,0,VALID,95.4657,VALID,-0.0339617,VALID,16.7227,VALID,191,VALID,0.603711,
2000-03-06, 03:06:00,VALID,0,VALID,95.3665,VALID,0,VALID,16.7356,VALID,193,VALID,0.825521,
2000-03-06, 03:07:01,VALID,0,VALID,95.0817,VALID,-0.0169808,VALID,16.7552,VALID,199,VALID,0.813117,
2000-03-06, 03:08:01,VALID,0,VALID,94.629,VALID,0,VALID,16.7584,VALID,198,VALID,0.809375,
2000-03-06, 03:09:00,VALID,0,VALID,94.4103,VALID,-0.0339617,VALID,16.7743,VALID,200,VALID,0.767773,
2000-03-06, 03:10:00,VALID,0,VALID,94.3632,VALID,-0.0169808,VALID,16.8068,VALID,211,VALID,0.85432,
2000-03-06, 03:11:00,VALID,0,VALID,94.0085,VALID,-0.0169808,VALID,16.9133,VALID,221,VALID,0.887804,
2000-03-06, 03:12:00,VALID,0,VALID,93.4146,VALID,0,VALID,17.0356,VALID,219,VALID,1.16674,
2000-03-06, 03:13:00,VALID,0,VALID,92.8386,VALID,-0.0169808,VALID,17.178,VALID,213,VALID,1.17408,
2000-03-06, 03:14:00,VALID,0,VALID,92.3414,VALID,-0.0169808,VALID,17.3013,VALID,215,VALID,1.10176,
2000-03-06, 03:15:00,VALID,0,VALID,91.993,VALID,0,VALID,17.3846,VALID,212,VALID,1.02639,
2000-03-06, 03:16:00,VALID,0,VALID,91.6662,VALID,0,VALID,17.4494,VALID,213,VALID,0.729492,
2000-03-06, 03:17:00,VALID,0,VALID,91.4678,VALID,0,VALID,17.4713,VALID,207,VALID,0.617188,
2000-03-06, 03:18:00,VALID,0,VALID,91.5479,VALID,0.0169808,VALID,17.5002,VALID,217,VALID,0.691907,
2000-03-06, 03:19:00,VALID,0,VALID,91.5314,VALID,0,VALID,17.5068,VALID,213,VALID,0.673713,
2000-03-06, 03:20:00,VALID,0,VALID,91.5237,VALID,0.0339617,VALID,17.4972,VALID,208,VALID,0.663628,
2000-03-06, 03:21:00,VALID,0,VALID,91.4958,VALID,0,VALID,17.4748,VALID,200,VALID,0.713108,
2000-03-06, 03:22:00,VALID,0,VALID,91.5721,VALID,0,VALID,17.4591,VALID,199,VALID,0.769231,
2000-03-06, 03:23:00,VALID,0,VALID,91.6191,VALID,0,VALID,17.452,VALID,209,VALID,0.711138,
2000-03-06, 03:24:00,VALID,0,VALID,91.4055,VALID,-0.0169808,VALID,17.4547,VALID,210,VALID,0.634924,
2000-03-06, 03:25:00,VALID,0,VALID,91.0876,VALID,0.0169808,VALID,17.452,VALID,199,VALID,0.611178,
2000-03-06, 03:26:00,VALID,0,VALID,91.6585,VALID,0,VALID,17.4031,VALID,188,VALID,0.767064,
2000-03-06, 03:27:00,VALID,0,VALID,91.9586,VALID,0,VALID,17.362,VALID,185,VALID,0.735577,
2000-03-06, 03:28:00,VALID,0,VALID,91.5555,VALID,0,VALID,17.297,VALID,177,VALID,0.628078,
2000-03-06, 03:29:01,VALID,0,VALID,92.2066,VALID,0.0169808,VALID,17.2258,VALID,182,VALID,0.626085,
2000-03-06, 03:30:00,VALID,0,VALID,92.5982,VALID,0.0509425,VALID,17.158,VALID,182,VALID,0.665264,
2000-03-06, 03:31:00,VALID,0,VALID,92.583,VALID,0.0679233,VALID,17.0762,VALID,173,VALID,0.638302,
2000-03-06, 03:32:00,VALID,0,VALID,93.674,VALID,0.0849042,VALID,17.002,VALID,175,VALID,0.760156,
2000-03-06, 03:33:00,VALID,0,VALID,93.9182,VALID,0.0509425,VALID,17.0153,VALID,178,VALID,0.863498,
2000-03-06, 03:34:00,VALID,0,VALID,93.4973,VALID,0.0849042,VALID,17.0734,VALID,189,VALID,1.05674,
2000-03-06, 03:35:00,VALID,0,VALID,92.8259,VALID,0.0339617,VALID,17.1638,VALID,192,VALID,1.19397,
2000-03-06, 03:36:00,VALID,0,VALID,92.2079,VALID,0.0509425,VALID,17.2929,VALID,195,VALID,1.40859,
2000-03-06, 03:37:00,VALID,0,VALID,91.3902,VALID,0.0679233,VALID,17.4804,VALID,183,VALID,1.39131,
2000-03-06, 03:38:00,VALID,0,VALID,90.4823,VALID,0.0339617,VALID,17.6514,VALID,179,VALID,1.23286,
2000-03-06, 03:39:00,VALID,0,VALID,90.3106,VALID,0.0339617,VALID,17.7158,VALID,177,VALID,1.17373,
2000-03-06, 03:40:00,VALID,0,VALID,90.2992,VALID,0.0169808,VALID,17.7352,VALID,184,VALID,1.27264,
2000-03-06, 03:41:00,VALID,0,VALID,90.2343,VALID,0.0849042,VALID,17.7515,VALID,193,VALID,1.43049,
2000-03-06, 03:42:00,VALID,0,VALID,90.247,VALID,0.0849042,VALID,17.7291,VALID,194,VALID,1.42378,
2000-03-06, 03:43:00,VALID,0,VALID,90.6209,VALID,0.0509425,VALID,17.6676,VALID,186,VALID,1.2918,
2000-03-06, 03:44:00,VALID,0,VALID,90.8778,VALID,0.0679233,VALID,17.6254,VALID,182,VALID,1.30369,
2000-03-06, 03:45:00,VALID,0,VALID,90.8892,VALID,0.0509425,VALID,17.6155,VALID,181,VALID,1.17808,
2000-03-06, 03:46:00,VALID,0,VALID,90.6463,VALID,0.0679233,VALID,17.6415,VALID,186,VALID,1.13879,
2000-03-06, 03:47:00,VALID,0,VALID,90.6578,VALID,0.0849042,VALID,17.6123,VALID,198,VALID,0.974392,
2000-03-06, 03:48:00,VALID,0,VALID,91.1079,VALID,0.0679233,VALID,17.5385,VALID,200,VALID,0.882378,
2000-03-06, 03:49:00,VALID,0,VALID,91.7653,VALID,0.0509425,VALID,17.4218,VALID,191,VALID,0.967548,
2000-03-06, 03:50:00,VALID,0,VALID,92.5041,VALID,0.0169808,VALID,17.351,VALID,179,VALID,0.999599,
2000-03-06, 03:51:00,VALID,0,VALID,92.569,VALID,0.0849042,VALID,17.3377,VALID,179,VALID,0.782095,
2000-03-06, 03:52:00,VALID,0,VALID,91.5746,VALID,0.0509425,VALID,17.3187,VALID,162,VALID,0.808894,
2000-03-06, 03:53:00,VALID,0,VALID,92.7572,VALID,0.0509425,VALID,17.2413,VALID,159,VALID,1.01007,
2000-03-06, 03:54:00,VALID,0,VALID,93.5596,VALID,0.0509425,VALID,17.1668,VALID,161,VALID,0.948317,
2000-03-06, 03:55:00,VALID,0,VALID,93.6448,VALID,0.0679233,VALID,17.1703,VALID,165,VALID,0.861032,
2000-03-06, 03:56:00,VALID,0,VALID,93.3307,VALID,0.0679233,VALID,17.1989,VALID,156,VALID,0.914714,
2000-03-06, 03:57:00,VALID,0,VALID,93.4184,VALID,0.0679233,VALID,17.1957,VALID,162,VALID,0.954527,
2000-03-06, 03:58:00,VALID,0,VALID,93.3981,VALID,0.0849042,VALID,17.2249,VALID,189,VALID,0.836571,
2000-03-06, 03:59:00,VALID,0,VALID,92.9924,VALID,0.0509425,VALID,17.2473,VALID,199,VALID,0.704883,
2000-03-06, 04:00:00,VALID,0,VALID,92.9963,VALID,0,VALID,17.2449,VALID,166,VALID,0.759766,
2000-03-06, 04:01:01,VALID,0,VALID,93.2862,VALID,-0.0509425,VALID,17.2591,VALID,168,VALID,0.890214,
2000-03-06, 04:02:00,VALID,0,VALID,93.0471,VALID,-0.0509425,VALID,17.2906,VALID,175,VALID,0.948214,
2000-03-06, 04:03:00,VALID,0,VALID,92.5881,VALID,-0.0509425,VALID,17.3067,VALID,189,VALID,0.745117,
2000-03-06, 04:04:00,VALID,0,VALID,92.9149,VALID,-0.0339617,VALID,17.3231,VALID,198,VALID,0.731847,
2000-03-06, 04:05:00,VALID,0,VALID,92.8627,VALID,-0.0679233,VALID,17.3489,VALID,200,VALID,0.633247,
2000-03-06, 04:06:00,VALID,0,VALID,92.6606,VALID,-0.0339617,VALID,17.384,VALID,203,VALID,0.595189,
2000-03-06, 04:07:00,VALID,0,VALID,92.307,VALID,-0.0339617,VALID,17.3973,VALID,211,VALID,0.360377,
2000-03-06, 04:08:00,VALID,0,VALID,92.1265,VALID,-0.0169808,VALID,17.3583,VALID,203,VALID,0.424079,